Location: Newark
(10.3333°N, 37.7167°E)
Time: 06:30:44
(UTC+00:00)

FALCON 9 DEB - Pass Details

Date: 04 February 2020
Orbit: 249 x 257 km, 53.0° (Epoch: 17 February)

Event Time Altitude Azimuth Distance (km) Brightness Sun altitude
Rises 16:22:23 0° 334° (NNW) 1,884 ? -12.2°
Reaches altitude 10° 16:24:20 10° 343° (NNW) 1,079 ? -12.7°
Maximum altitude 16:26:35 37° 54° (NE) 439 ? -13.2°
Enters shadow 16:26:54 35° 76° (ENE) 459 ? -13.3°
